Volver al catálogo

THORAD AGENA D DEB

ActivoPO
NORAD 4950·DEBRIS·🇺🇸 United States

Lanzado Apr 8, 1970 desde Vandenberg Space Force Base

Loading…

Próximos Pases

TLE

Source: Space-Track
1  4950U 70025GL  26221.63716556 -.00000059  00000-0 -44803-4 0  9993
2  4950  99.8239 110.0158 0219125 256.8481 130.5291 13.10223171690502

Sigue THORAD AGENA D DEB en tiempo real con AllMySat

Download on the App Store